[[{"header":{"parameterUnit":"m.s-1","parameterCategory":1,"la1":30.2991,"la2":30.254,"lo1":-89.0895,"lo2":-89.0444,"dy":0.0017,"dx":0.0017,"nx":28,"ny":28,"refTime":"2024-05-09T21:00:00:Z","depth":0,"parameterNumber":2,"parameterNumberName":"U-component_of_WINDS"},"data":[0,0,0,0,0,0,0,0,0,0,0,0,0,0,0,0,0,0,0,0,0,0,0,0,0,0,0,0,0,0,0,0,0,0,0,0,0,0,0,0,0,0,0,0,0,0,0,0,0,0,0,0,0,0,0,0,0,0,-0.8853,-0.8852,0,-0.8761,-0.876,-0.8759,-0.8707,-0.8707,-0.8706,-0.8706,-0.8612,-0.861,-0.8607,0,0,0,0,0,0,0,0,0,0,0,0,0,-0.8985,-0.8983,-0.8853,-0.8852,-0.8851,-0.8761,-0.876,-0.8759,-0.8707,-0.8707,-0.8706,-0.8706,-0.8613,-0.861,-0.8607,0,0,0,0,0,0,0,0,0,0,0,0,0,-0.8914,-0.8982,-0.8853,-0.8814,-0.881,-0.8762,-0.876,-0.8758,-0.8707,-0.8706,-0.8706,-0.8706,-0.8614,-0.861,-0.8607,-0.8591,0,0,-0.8596,-0.8595,0,0,0,0,0,0,0,0,-0.8918,-0.8909,-0.8821,-0.8817,-0.8812,-0.8745,-0.8772,-0.8702,-0.8707,-0.8746,-0.8706,-0.8706,-0.8656,-0.8649,-0.8633,-0.8586,-0.8582,-0.8596,-0.8594,-0.8592,-0.8591,0,0,0,0,0,0,0,-0.8923,-0.8913,-0.8817,-0.882,-0.8814,-0.8801,-0.8791,-0.8758,-0.8704,-0.8742,-0.8738,-0.8728,-0.8654,-0.8636,-0.863,-0.8581,-0.8596,-0.8593,-0.8591,-0.8589,-0.8517,-0.8517,0,0,0,0,0,0,-0.8934,-0.8917,-0.882,-0.8814,-0.8865,-0.8799,-0.8788,-0.8767,-0.8704,-0.8694,-0.8729,-0.8726,-0.8642,-0.8634,-0.8627,-0.8604,-0.8592,-0.8589,-0.8587,-0.8517,-0.8517,-0.8517,0,0,0,0,0,0,-0.8937,-0.8926,-0.8823,-0.8864,-0.885,-0.8797,-0.8774,-0.8765,-0.8747,-0.8694,-0.8684,-0.8721,-0.8642,-0.8632,-0.86,-0.86,-0.8587,-0.8584,-0.8516,-0.8517,-0.8517,-0.8558,0,0,0,0,0,0,-0.8941,-0.8927,-0.892,-0.8865,-0.8848,-0.8798,-0.8774,-0.8764,-0.8741,-0.8737,-0.8683,-0.8674,-0.8641,-0.8606,-0.8597,-0.8595,-0.8581,-0.8516,-0.8516,-0.8517,-0.8556,-0.8559,-0.8562,0,0,0,0,0,-0.8946,-0.8936,-0.892,-0.8909,-0.8839,-0.8798,-0.8789,-0.8751,-0.8742,-0.8734,-0.87,-0.8676,-0.8601,-0.8603,-0.8592,-0.8589,-0.8516,-0.8516,-0.8517,-0.8555,-0.8559,-0.8562,0,0,0,0,0,0,-0.8993,-0.8927,-0.891,-0.8881,-0.8846,-0.879,-0.8779,-0.8756,-0.8723,-0.872,-0.8675,-0.8663,-0.8636,-0.8609,-0.8612,-0.8571,-0.8556,-0.8554,-0.8589,-0.8592,-0.8595,-0.8602,-0.8578,0,0,0,0,0,-0.9,-0.8972,-0.8917,-0.8897,-0.888,-0.8833,-0.8814,-0.8787,-0.8749,-0.8734,-0.8697,-0.8661,-0.8629,-0.8609,-0.8577,-0.8552,-0.854,-0.8545,-0.8548,-0.8551,-0.855,-0.8535,-0.8537,-0.8518,-0.8518,-0.8518,0,0,-0.9013,-0.8975,-0.896,-0.8905,-0.8874,-0.8847,-0.882,-0.8793,-0.8772,-0.8729,-0.8697,-0.8669,-0.8626,-0.8598,-0.8584,-0.8575,-0.8553,-0.8551,-0.8554,-0.8551,-0.8536,-0.8538,-0.854,-0.8519,-0.8519,-0.8518,0,0,-0.9025,-0.8993,-0.8972,-0.8943,-0.8897,-0.8866,-0.8861,-0.8808,-0.8788,-0.8755,-0.8723,-0.8698,-0.8644,-0.8615,-0.8593,-0.8594,-0.8571,-0.8585,-0.86,-0.8587,-0.8588,-0.8589,-0.859,-0.8591,-0.8584,-0.8584,-0.8584,0,-0.9048,-0.9005,-0.8965,-0.8939,-0.8916,-0.8877,-0.8856,-0.8829,-0.8775,-0.876,-0.8751,-0.8684,-0.8652,-0.8616,-0.8617,-0.86,-0.8594,-0.8591,-0.8591,-0.8592,-0.8592,-0.8592,-0.8593,-0.8586,-0.8586,-0.8586,-0.8586,0,-0.9036,-0.9007,-0.8997,-0.8946,-0.8921,-0.8899,-0.8855,-0.8835,-0.8812,-0.8782,-0.8749,-0.8709,-0.8669,-0.8659,-0.8635,-0.862,-0.8616,-0.86,-0.8584,-0.8597,-0.8596,-0.8596,-0.8589,-0.8589,-0.8588,-0.8587,0,0,-0.9074,-0.9001,-0.8998,-0.8975,-0.8922,-0.8898,-0.8874,-0.8834,-0.8819,-0.8783,-0.8762,-0.8718,-0.8702,-0.8678,-0.865,-0.8638,-0.8642,-0.8623,-0.8622,-0.8628,-0.8624,-0.8637,-0.8637,-0.8627,-0.8627,-0.8627,-0.8628,0,-0.9078,-0.9032,-0.8995,-0.8962,-0.8935,-0.8898,-0.8876,-0.8842,-0.8814,-0.8787,-0.8755,-0.8725,-0.8707,-0.8692,-0.8679,-0.8645,-0.8641,-0.8644,-0.8606,-0.8606,-0.8618,-0.8637,-0.865,-0.8653,-0.8627,-0.8627,-0.8627,0,-0.9076,-0.9042,-0.9007,-0.8957,-0.8944,-0.8926,-0.8887,-0.8861,-0.8822,-0.8802,-0.8775,-0.8746,-0.8719,-0.8707,-0.8669,-0.8672,-0.8655,-0.8636,-0.8635,-0.863,-0.8617,-0.8632,-0.8653,-0.8653,-0.8626,-0.8626,-0.8626,0,-0.9108,-0.9053,-0.9025,-0.9006,-0.8947,-0.8935,-0.891,-0.8869,-0.8848,-0.8814,-0.88,-0.8763,-0.8743,-0.8716,-0.8679,-0.8673,-0.8645,-0.8629,-0.8628,-0.8629,-0.8623,-0.8624,-0.8641,-0.8613,-0.8613,-0.8613,-0.8613,0,-0.9116,-0.9096,-0.9038,-0.9021,-0.8998,-0.8956,-0.8934,-0.8906,-0.8871,-0.8848,-0.8813,-0.8792,-0.8744,-0.8718,-0.8689,-0.8662,-0.8653,-0.8637,-0.8629,-0.864,-0.8642,-0.8628,-0.8626,-0.8613,-0.8613,-0.8613,-0.8613,0,-0.9147,-0.9107,-0.9074,-0.9021,-0.9007,-0.8993,-0.8947,-0.8929,-0.8899,-0.887,-0.8861,-0.8814,-0.8781,-0.8742,-0.8696,-0.8677,-0.8653,-0.8641,-0.8666,-0.8662,-0.8663,-0.8663,-0.8671,-0.867,-0.8642,-0.8643,-0.8643,0,-0.9155,-0.9138,-0.9083,-0.9065,-0.9041,-0.9013,-0.8991,-0.8949,-0.8928,-0.8881,-0.8869,-0.8834,-0.8803,-0.8753,-0.8714,-0.868,-0.8667,-0.8672,-0.8662,-0.8673,-0.8667,-0.8669,-0.8667,-0.8675,-0.8676,-0.8676,-0.8676,0,-0.9173,-0.9154,-0.9124,-0.9086,-0.9061,-0.903,-0.8997,-0.8985,-0.8936,-0.8914,-0.888,-0.8857,-0.881,-0.8775,-0.8736,-0.871,-0.8686,-0.868,-0.8678,-0.8689,-0.8704,-0.8696,-0.8674,-0.868,-0.868,-0.868,-0.8679,-0.8679,-0.9193,-0.9177,-0.9135,-0.9103,-0.9074,-0.9044,-0.9025,-0.8992,-0.8963,-0.8922,-0.8899,-0.8866,-0.8827,-0.8771,-0.8746,-0.872,-0.8711,-0.8708,-0.8707,-0.8707,-0.871,-0.8708,-0.8712,-0.8712,-0.8712,-0.8712,-0.8712,0,-0.9209,-0.9181,-0.9151,-0.9106,-0.9081,-0.906,-0.9022,-0.9003,-0.8974,-0.8939,-0.891,-0.8871,-0.8837,-0.8797,-0.8761,-0.8747,-0.8735,-0.8739,-0.874,-0.8734,-0.872,-0.8726,-0.875,-0.875,-0.875,-0.875,-0.875,-0.875,-0.9215,-0.9187,-0.9163,-0.912,-0.9092,-0.9059,-0.904,-0.9012,-0.8984,-0.8943,-0.8914,-0.8888,-0.8851,-0.8812,-0.8781,-0.877,-0.8758,-0.8766,-0.8751,-0.8739,-0.8735,-0.8732,-0.8737,-0.8763,-0.8763,-0.8768,-0.8768,-0.8768]},{"header":{"parameterUnit":"m.s-1","parameterCategory":1,"la1":30.2991,"la2":30.254,"lo1":-89.0895,"lo2":-89.0444,"dy":0.0017,"dx":0.0017,"nx":28,"ny":28,"refTime":"2024-05-09T21:00:00:Z","depth":0,"parameterNumber":3,"parameterNumberName":"V-component_of_WINDS"},"data":[0,0,0,0,0,0,0,0,0,0,0,0,0,0,0,0,0,0,0,0,0,0,0,0,0,0,0,0,0,0,0,0,0,0,0,0,0,0,0,0,0,0,0,0,0,0,0,0,0,0,0,0,0,0,0,0,0,0,5.764,5.764,0,5.7603,5.7602,5.7602,5.7596,5.7597,5.7597,5.7597,5.7553,5.7551,5.755,0,0,0,0,0,0,0,0,0,0,0,0,0,5.7703,5.7702,5.764,5.764,5.7639,5.7603,5.7602,5.7602,5.7596,5.7597,5.7597,5.7597,5.7553,5.7552,5.755,0,0,0,0,0,0,0,0,0,0,0,0,0,5.7671,5.7701,5.764,5.7632,5.7631,5.7603,5.7602,5.7602,5.7596,5.7597,5.7597,5.7598,5.7554,5.7552,5.755,5.7525,0,0,5.7543,5.7542,0,0,0,0,0,0,0,0,5.7673,5.7669,5.7634,5.7633,5.7631,5.7605,5.7608,5.7576,5.7596,5.7609,5.7597,5.7598,5.7569,5.7566,5.7558,5.7523,5.7521,5.7543,5.7541,5.754,5.754,0,0,0,0,0,0,0,5.7675,5.767,5.7625,5.7633,5.7632,5.7629,5.7625,5.7602,5.7586,5.7608,5.7608,5.7604,5.7569,5.756,5.7556,5.752,5.7543,5.7541,5.7539,5.7538,5.7466,5.7466,0,0,0,0,0,0,5.768,5.7672,5.7626,5.7624,5.7654,5.7628,5.7623,5.7613,5.7587,5.7584,5.7603,5.7603,5.7563,5.7559,5.7555,5.7526,5.754,5.7538,5.7537,5.7467,5.7466,5.7465,0,0,0,0,0,0,5.7681,5.7676,5.7628,5.7648,5.7642,5.7626,5.7614,5.7612,5.7603,5.7583,5.758,5.7597,5.7564,5.7558,5.7534,5.7524,5.7537,5.7535,5.7467,5.7467,5.7466,5.7467,0,0,0,0,0,0,5.7683,5.7676,5.7667,5.7648,5.7641,5.7608,5.7614,5.7611,5.76,5.76,5.7577,5.7573,5.7564,5.7537,5.7531,5.7521,5.7533,5.7468,5.7467,5.7466,5.7467,5.7466,5.7465,0,0,0,0,0,5.7685,5.7667,5.7667,5.7661,5.763,5.7608,5.7603,5.7594,5.7599,5.7589,5.7577,5.7574,5.7527,5.7534,5.7528,5.7517,5.7469,5.7467,5.7466,5.7468,5.7466,5.7465,0,0,0,0,0,0,5.7682,5.7664,5.7664,5.7639,5.7626,5.7607,5.7594,5.7592,5.7575,5.7576,5.7564,5.7558,5.7535,5.7523,5.7533,5.7493,5.7498,5.7495,5.7501,5.7499,5.7498,5.7501,5.7531,0,0,0,0,0,5.768,5.7665,5.7649,5.7629,5.7622,5.761,5.76,5.7595,5.7579,5.7572,5.7558,5.7541,5.7523,5.7511,5.7492,5.7466,5.7461,5.7456,5.7455,5.7454,5.7451,5.7438,5.7436,5.7461,5.7461,5.7461,0,0,5.7672,5.7661,5.7651,5.7628,5.7617,5.7601,5.7605,5.7587,5.7574,5.7568,5.7545,5.7535,5.7515,5.7491,5.7479,5.748,5.7443,5.7452,5.7451,5.7449,5.7436,5.7434,5.7432,5.7461,5.7461,5.7461,0,0,5.7651,5.7641,5.7624,5.7614,5.7598,5.759,5.7586,5.7568,5.7562,5.7539,5.7535,5.752,5.7488,5.7475,5.7464,5.7442,5.7439,5.7436,5.7429,5.7416,5.7414,5.7413,5.7405,5.7403,5.7434,5.7434,5.7434,0,5.7644,5.7621,5.7615,5.7599,5.7589,5.7586,5.7569,5.7558,5.7536,5.7529,5.7532,5.7494,5.748,5.7453,5.7448,5.7439,5.7434,5.7438,5.7416,5.7414,5.7412,5.7405,5.7402,5.7434,5.7434,5.7434,5.7434,0,5.7613,5.7597,5.7586,5.7568,5.7556,5.7539,5.753,5.7519,5.7516,5.7508,5.7486,5.747,5.745,5.7443,5.7438,5.7416,5.7418,5.7418,5.7422,5.7409,5.7403,5.74,5.7434,5.7434,5.7434,5.7434,0,0,5.7587,5.7569,5.7564,5.7557,5.754,5.7527,5.7511,5.7494,5.7485,5.747,5.7456,5.7431,5.7433,5.742,5.7414,5.7403,5.7388,5.7405,5.7405,5.7403,5.7364,5.7364,5.7361,5.7387,5.7386,5.7386,5.7366,0,5.7564,5.7536,5.7532,5.7507,5.7493,5.7491,5.7477,5.7465,5.7458,5.7444,5.7435,5.7418,5.7421,5.7414,5.7403,5.7392,5.738,5.7394,5.7372,5.7372,5.7377,5.7357,5.7356,5.7338,5.7363,5.7363,5.7362,0,5.7533,5.7521,5.7495,5.7483,5.7477,5.7464,5.7449,5.7437,5.7423,5.7419,5.7407,5.7404,5.7386,5.7392,5.7368,5.7377,5.7369,5.7363,5.7362,5.7358,5.7366,5.7353,5.7331,5.7329,5.7358,5.7358,5.7359,0,5.7517,5.7494,5.7477,5.747,5.7455,5.7447,5.744,5.7428,5.7418,5.7405,5.7399,5.7383,5.7374,5.7361,5.7353,5.7358,5.733,5.7335,5.7325,5.7325,5.7318,5.7318,5.7294,5.7313,5.7313,5.7313,5.7313,0,5.7492,5.7476,5.747,5.7459,5.7442,5.7437,5.742,5.7413,5.7402,5.739,5.7387,5.7375,5.7365,5.7352,5.7345,5.7327,5.7322,5.7318,5.7316,5.7318,5.7319,5.7311,5.7312,5.7312,5.7312,5.7312,5.7313,0,5.747,5.7465,5.7446,5.7435,5.7432,5.742,5.741,5.7399,5.7394,5.7378,5.7373,5.7363,5.7348,5.7339,5.7318,5.7314,5.7294,5.7293,5.7299,5.7298,5.7289,5.729,5.7259,5.7255,5.7276,5.7276,5.7276,0,5.7454,5.7443,5.7432,5.7424,5.7418,5.7405,5.7397,5.7392,5.7384,5.737,5.736,5.7345,5.7333,5.7308,5.7298,5.7283,5.7281,5.7272,5.7279,5.7282,5.7281,5.7282,5.7281,5.727,5.727,5.7269,5.7269,0,5.7426,5.7425,5.7414,5.7403,5.7394,5.7384,5.7374,5.7368,5.7362,5.7352,5.7337,5.7328,5.7309,5.7294,5.7279,5.7271,5.7269,5.7268,5.7265,5.7266,5.727,5.7268,5.7295,5.7268,5.7268,5.7268,5.7268,5.7268,5.7407,5.7398,5.7389,5.7377,5.7371,5.7362,5.7353,5.7347,5.7335,5.7321,5.7319,5.7304,5.7292,5.7272,5.7264,5.7252,5.7253,5.7249,5.7248,5.7246,5.7247,5.7273,5.7249,5.7249,5.7249,5.7249,5.7249,0,5.7379,5.7375,5.7364,5.7353,5.7344,5.7346,5.7336,5.7328,5.7315,5.7306,5.7295,5.7279,5.7265,5.7256,5.7242,5.7234,5.7233,5.7231,5.7231,5.7229,5.7245,5.725,5.7232,5.7232,5.7232,5.7232,5.7232,5.7232,5.7364,5.7349,5.7347,5.7329,5.7324,5.7311,5.7305,5.7298,5.7291,5.7274,5.7264,5.7259,5.725,5.7236,5.7223,5.7221,5.7216,5.7213,5.7211,5.7226,5.7228,5.7229,5.7233,5.7212,5.7212,5.7196,5.7196,5.7195]}]]